DLH3P LKPR-EDDF

Flight info

Callsign DLH3P
Flight time 0h 38m
Altitude 24000
Route BALTU DCT DONAD DCT RAPET T170 GAPLA T178 KERAX KERAX5A
Aircraft A21N/M-SDE2E3FGIJ1LORWXYZ/HB1

Departure

Time 2026-05-07 17:28
Airport Václav Havel Airport Prague (LKPR)

Arrival

Time 2026-05-07 18:06
Airport Frankfurt Main Airport (EDDF)
Time Latitude Longitude Altitude Speed Heading
2026-05-07 17:07 50.10591 14.26277 1183 ft 0 kts 34°
2026-05-07 17:16 50.10570 14.26257 1183 ft 4 kts 21°
2026-05-07 17:16 50.10545 14.26250 1183 ft 4 kts 347°
2026-05-07 17:16 50.10530 14.26265 1183 ft 2 kts 284°
2026-05-07 17:17 50.10530 14.26267 1183 ft 0 kts 283°
2026-05-07 17:21 50.10533 14.26245 1183 ft 5 kts 283°
2026-05-07 17:21 50.10537 14.26174 1183 ft 8 kts 266°
2026-05-07 17:21 50.10531 14.26103 1185 ft 2 kts 261°
2026-05-07 17:21 50.10529 14.26077 1186 ft 5 kts 261°
2026-05-07 17:22 50.10505 14.26019 1189 ft 10 kts 174°
2026-05-07 17:22 50.10444 14.26093 1192 ft 13 kts 127°
2026-05-07 17:22 50.10382 14.26218 1194 ft 16 kts 127°
2026-05-07 17:22 50.10309 14.26370 1197 ft 19 kts 126°
2026-05-07 17:23 50.10227 14.26546 1201 ft 21 kts 128°
2026-05-07 17:23 50.10132 14.26739 1203 ft 24 kts 127°
2026-05-07 17:23 50.10054 14.26903 1207 ft 20 kts 127°
2026-05-07 17:23 50.09966 14.27089 1211 ft 23 kts 127°
2026-05-07 17:24 50.09877 14.27274 1210 ft 18 kts 129°
2026-05-07 17:24 50.09785 14.27423 1211 ft 20 kts 135°
2026-05-07 17:24 50.09679 14.27583 1212 ft 22 kts 136°
2026-05-07 17:24 50.09569 14.27750 1215 ft 18 kts 134°
2026-05-07 17:25 50.09471 14.27900 1220 ft 21 kts 136°
2026-05-07 17:25 50.09361 14.28072 1226 ft 19 kts 134°
2026-05-07 17:25 50.09264 14.28224 1231 ft 17 kts 137°
2026-05-07 17:25 50.09171 14.28284 1243 ft 13 kts 186°
2026-05-07 17:26 50.09102 14.28180 1244 ft 16 kts 252°
2026-05-07 17:26 50.09111 14.28039 1240 ft 8 kts 304°
2026-05-07 17:26 50.09118 14.28023 1236 ft 0 kts 306°
2026-05-07 17:27 50.09161 14.27931 1237 ft 38 kts 306°
2026-05-07 17:27 50.09471 14.27291 1221 ft 107 kts 307°
2026-05-07 17:27 50.10015 14.26160 1206 ft 150 kts 306°
2026-05-07 17:28 50.10660 14.24862 1684 ft 154 kts 306°
2026-05-07 17:28 50.11300 14.23521 2361 ft 156 kts 308°
2026-05-07 17:28 50.11978 14.22108 2840 ft 170 kts 308°
2026-05-07 17:28 50.12724 14.20555 3354 ft 190 kts 308°
2026-05-07 17:29 50.13572 14.18804 3853 ft 218 kts 307°
2026-05-07 17:29 50.14543 14.16791 4418 ft 243 kts 306°
2026-05-07 17:29 50.15580 14.14635 5290 ft 252 kts 305°
2026-05-07 17:29 50.16644 14.12418 6258 ft 258 kts 305°
2026-05-07 17:30 50.17733 14.10153 7163 ft 264 kts 305°
2026-05-07 17:30 50.18847 14.07828 8103 ft 270 kts 305°
2026-05-07 17:30 50.19905 14.05369 9018 ft 276 kts 293°
2026-05-07 17:30 50.20364 14.02468 9975 ft 278 kts 272°
2026-05-07 17:31 50.20371 13.99388 10628 ft 294 kts 267°
2026-05-07 17:31 50.20321 13.96093 11135 ft 314 kts 267°
2026-05-07 17:31 50.20282 13.92565 11510 ft 337 kts 268°
2026-05-07 17:31 50.20258 13.88786 11835 ft 359 kts 268°
2026-05-07 17:32 50.20242 13.84781 12123 ft 379 kts 269°
2026-05-07 17:32 50.20232 13.80599 12513 ft 391 kts 269°
2026-05-07 17:32 50.20221 13.76312 13070 ft 397 kts 269°
2026-05-07 17:32 50.20213 13.73455 13544 ft 399 kts 269°
2026-05-07 17:33 50.20196 13.67630 14337 ft 403 kts 269°
2026-05-07 17:33 50.20182 13.63251 14914 ft 406 kts 269°
2026-05-07 17:33 50.20166 13.58821 15486 ft 409 kts 269°
2026-05-07 17:33 50.20149 13.54356 15996 ft 413 kts 269°
2026-05-07 17:34 50.20130 13.49861 16486 ft 416 kts 269°
2026-05-07 17:34 50.20110 13.45345 16975 ft 417 kts 269°
2026-05-07 17:34 50.20089 13.40843 17414 ft 420 kts 269°
2026-05-07 17:34 50.20067 13.36226 17869 ft 423 kts 269°
2026-05-07 17:35 50.20042 13.31617 18304 ft 426 kts 269°
2026-05-07 17:35 50.20014 13.26974 18694 ft 429 kts 269°
2026-05-07 17:35 50.19983 13.22318 19112 ft 430 kts 269°
2026-05-07 17:35 50.19948 13.17629 19507 ft 433 kts 269°
2026-05-07 17:36 50.19912 13.12911 19898 ft 436 kts 269°
2026-05-07 17:36 50.19874 13.08168 20296 ft 439 kts 269°
2026-05-07 17:36 50.19836 13.03397 20709 ft 441 kts 270°
2026-05-07 17:36 50.19795 12.98596 21163 ft 444 kts 270°
2026-05-07 17:37 50.19751 12.93767 21627 ft 447 kts 270°
2026-05-07 17:37 50.19705 12.88911 22088 ft 449 kts 270°
2026-05-07 17:37 50.19659 12.84090 22527 ft 451 kts 270°
2026-05-07 17:37 50.19607 12.79114 22970 ft 454 kts 270°
2026-05-07 17:38 50.19554 12.74169 23407 ft 457 kts 270°
2026-05-07 17:38 50.19499 12.69200 23805 ft 460 kts 270°
2026-05-07 17:38 50.19441 12.64200 24012 ft 462 kts 270°
2026-05-07 17:38 50.19381 12.59184 24052 ft 462 kts 270°
2026-05-07 17:39 50.19318 12.54176 24046 ft 460 kts 270°
2026-05-07 17:39 50.19254 12.49201 24039 ft 460 kts 270°
2026-05-07 17:39 50.19187 12.44205 24025 ft 461 kts 270°
2026-05-07 17:39 50.19120 12.39196 24030 ft 461 kts 271°
2026-05-07 17:40 50.19298 12.34214 24036 ft 460 kts 279°
2026-05-07 17:40 50.20043 12.29378 24042 ft 458 kts 289°
2026-05-07 17:40 50.21105 12.24698 24046 ft 458 kts 291°
2026-05-07 17:40 50.22198 12.20037 24047 ft 458 kts 291°
2026-05-07 17:41 50.23289 12.15364 24034 ft 458 kts 291°
2026-05-07 17:41 50.24372 12.10688 24033 ft 458 kts 290°
2026-05-07 17:41 50.25446 12.05999 24033 ft 459 kts 291°
2026-05-07 17:41 50.26521 12.01295 24016 ft 460 kts 290°
2026-05-07 17:42 50.27599 11.96586 24019 ft 460 kts 291°
2026-05-07 17:42 50.28679 11.91884 24021 ft 460 kts 291°
2026-05-07 17:42 50.29761 11.87178 24021 ft 460 kts 291°
2026-05-07 17:42 50.30839 11.82470 24023 ft 460 kts 291°
2026-05-07 17:43 50.31913 11.77756 24023 ft 460 kts 290°
2026-05-07 17:43 50.32985 11.73044 24024 ft 460 kts 290°
2026-05-07 17:43 50.34057 11.68323 24026 ft 460 kts 290°
2026-05-07 17:43 50.35124 11.63609 24028 ft 460 kts 290°
2026-05-07 17:44 50.35830 11.60485 24014 ft 460 kts 290°
2026-05-07 17:44 50.36898 11.55759 24023 ft 462 kts 290°
2026-05-07 17:44 50.37969 11.51007 24031 ft 462 kts 290°
2026-05-07 17:44 50.39037 11.46256 24034 ft 462 kts 290°
2026-05-07 17:45 50.40102 11.41506 24040 ft 462 kts 290°
2026-05-07 17:45 50.41165 11.36757 24042 ft 462 kts 290°
2026-05-07 17:45 50.42226 11.31998 24042 ft 462 kts 290°
2026-05-07 17:45 50.43284 11.27238 24044 ft 462 kts 290°
2026-05-07 17:46 50.44336 11.22483 24045 ft 462 kts 289°
2026-05-07 17:46 50.45389 11.17720 24043 ft 462 kts 290°
2026-05-07 17:46 50.46443 11.12949 24040 ft 463 kts 289°
2026-05-07 17:46 50.47494 11.08167 24043 ft 464 kts 289°
2026-05-07 17:47 50.48475 11.03343 24039 ft 464 kts 283°
2026-05-07 17:47 50.48800 10.98316 24044 ft 465 kts 270°
2026-05-07 17:47 50.48742 10.93240 24042 ft 465 kts 269°
2026-05-07 17:47 50.48673 10.88170 24048 ft 465 kts 269°
2026-05-07 17:48 50.48629 10.83096 24048 ft 465 kts 270°
2026-05-07 17:48 50.48362 10.78046 24049 ft 465 kts 262°
2026-05-07 17:48 50.47822 10.73035 24052 ft 466 kts 261°
2026-05-07 17:48 50.47265 10.68022 24047 ft 466 kts 260°
2026-05-07 17:49 50.46725 10.63027 24036 ft 464 kts 261°
2026-05-07 17:49 50.46197 10.58029 23804 ft 464 kts 261°
2026-05-07 17:49 50.45676 10.53046 23365 ft 461 kts 261°
2026-05-07 17:49 50.45159 10.48095 22747 ft 457 kts 261°
2026-05-07 17:50 50.44646 10.43203 22096 ft 453 kts 261°
2026-05-07 17:50 50.44136 10.38352 21444 ft 449 kts 261°
2026-05-07 17:50 50.43628 10.33538 20799 ft 445 kts 261°
2026-05-07 17:50 50.43123 10.28774 20167 ft 441 kts 261°
2026-05-07 17:51 50.42620 10.24052 19547 ft 437 kts 261°
2026-05-07 17:51 50.42119 10.19369 18937 ft 433 kts 261°
2026-05-07 17:51 50.41621 10.14729 18346 ft 430 kts 261°
2026-05-07 17:51 50.41126 10.10139 17663 ft 425 kts 261°
2026-05-07 17:52 50.40634 10.05583 17010 ft 422 kts 261°
2026-05-07 17:52 50.40145 10.01076 16360 ft 418 kts 261°
2026-05-07 17:52 50.39658 9.96607 15723 ft 414 kts 261°
2026-05-07 17:52 50.39173 9.92172 15096 ft 411 kts 261°
2026-05-07 17:53 50.38689 9.87775 14480 ft 408 kts 261°
2026-05-07 17:53 50.38209 9.83422 13881 ft 404 kts 261°
2026-05-07 17:53 50.37731 9.79103 13213 ft 401 kts 261°
2026-05-07 17:53 50.37257 9.74821 12552 ft 397 kts 261°
2026-05-07 17:54 50.36785 9.70579 11907 ft 392 kts 261°
2026-05-07 17:54 50.36321 9.66427 11353 ft 381 kts 261°
2026-05-07 17:54 50.35870 9.62424 11111 ft 364 kts 261°
2026-05-07 17:54 50.35437 9.58633 11045 ft 344 kts 260°
2026-05-07 17:55 50.34689 9.55200 11033 ft 325 kts 245°
2026-05-07 17:55 50.33670 9.52132 10908 ft 311 kts 243°
2026-05-07 17:55 50.32657 9.49182 10590 ft 305 kts 243°
2026-05-07 17:55 50.31666 9.46278 10219 ft 301 kts 243°
2026-05-07 17:56 50.30690 9.43398 9819 ft 298 kts 244°
2026-05-07 17:56 50.29728 9.40545 9393 ft 295 kts 244°
2026-05-07 17:56 50.28775 9.37718 8970 ft 293 kts 244°
2026-05-07 17:56 50.27832 9.34913 8549 ft 290 kts 243°
2026-05-07 17:57 50.26899 9.32138 8137 ft 287 kts 243°
2026-05-07 17:57 50.26286 9.30312 7871 ft 286 kts 243°
2026-05-07 17:57 50.25057 9.26661 7315 ft 282 kts 243°
2026-05-07 17:57 50.24150 9.23977 7083 ft 274 kts 243°
2026-05-07 17:58 50.23272 9.21382 7030 ft 269 kts 243°
2026-05-07 17:58 50.22398 9.18798 7028 ft 270 kts 243°
2026-05-07 17:58 50.21519 9.16206 7043 ft 270 kts 243°
2026-05-07 17:58 50.20640 9.13613 7054 ft 270 kts 243°
2026-05-07 17:59 50.19761 9.11024 7057 ft 270 kts 243°
2026-05-07 17:59 50.18886 9.08446 6985 ft 265 kts 243°
2026-05-07 17:59 50.18023 9.05907 6613 ft 264 kts 243°
2026-05-07 17:59 50.17164 9.03382 6189 ft 264 kts 243°
2026-05-07 18:00 50.16302 9.00853 5735 ft 264 kts 243°
2026-05-07 18:00 50.15473 8.98300 5328 ft 263 kts 246°
2026-05-07 18:00 50.14732 8.95729 5082 ft 256 kts 249°
2026-05-07 18:00 50.14089 8.93217 4974 ft 243 kts 251°
2026-05-07 18:01 50.13516 8.90838 4961 ft 226 kts 251°
2026-05-07 18:01 50.12973 8.88563 4972 ft 223 kts 251°
2026-05-07 18:01 50.12433 8.86293 4960 ft 223 kts 251°
2026-05-07 18:01 50.11895 8.84037 4767 ft 222 kts 251°
2026-05-07 18:02 50.10820 8.79522 4159 ft 222 kts 251°
2026-05-07 18:02 50.10283 8.77269 3843 ft 222 kts 251°
2026-05-07 18:02 50.09750 8.75031 3512 ft 219 kts 251°
2026-05-07 18:03 50.09223 8.72821 3199 ft 215 kts 252°
2026-05-07 18:03 50.08717 8.70696 2961 ft 205 kts 251°
2026-05-07 18:03 50.08226 8.68636 2658 ft 200 kts 251°
2026-05-07 18:03 50.07756 8.66668 2365 ft 187 kts 251°
2026-05-07 18:04 50.07322 8.64848 2107 ft 170 kts 251°
2026-05-07 18:04 50.06939 8.63245 1836 ft 146 kts 251°
2026-05-07 18:04 50.06595 8.61801 1602 ft 141 kts 251°
2026-05-07 18:04 50.06254 8.60373 1400 ft 140 kts 251°
2026-05-07 18:05 50.05921 8.58976 1201 ft 138 kts 250°
2026-05-07 18:05 50.05585 8.57568 1002 ft 139 kts 251°
2026-05-07 18:05 50.05250 8.56164 806 ft 138 kts 251°
2026-05-07 18:05 50.04910 8.54757 590 ft 140 kts 251°
2026-05-07 18:06 50.04575 8.53333 403 ft 140 kts 250°
2026-05-07 18:06 50.04257 8.52011 350 ft 98 kts 249°
2026-05-07 18:06 50.04066 8.51489 334 ft 21 kts 225°
2026-05-07 18:06 50.04000 8.51401 335 ft 10 kts 220°
2026-05-07 18:07 50.03946 8.51357 339 ft 8 kts 167°
2026-05-07 18:07 50.03907 8.51429 338 ft 11 kts 96°
2026-05-07 18:07 50.03931 8.51558 347 ft 14 kts 71°
2026-05-07 18:07 50.03967 8.51710 350 ft 16 kts 69°
2026-05-07 18:08 50.04011 8.51887 353 ft 19 kts 69°
2026-05-07 18:08 50.04061 8.52088 349 ft 21 kts 69°
2026-05-07 18:08 50.04115 8.52318 352 ft 24 kts 69°
2026-05-07 18:08 50.04176 8.52573 356 ft 26 kts 70°
2026-05-07 18:09 50.04238 8.52832 358 ft 25 kts 70°
2026-05-07 18:09 50.04301 8.53094 364 ft 27 kts 69°
2026-05-07 18:09 50.04363 8.53351 374 ft 26 kts 69°
2026-05-07 18:09 50.04402 8.53630 381 ft 23 kts 83°
2026-05-07 18:10 50.04420 8.53885 381 ft 25 kts 84°
2026-05-07 18:10 50.04438 8.54159 381 ft 27 kts 85°
2026-05-07 18:10 50.04451 8.54374 378 ft 12 kts 83°
2026-05-07 18:10 50.04445 8.54512 373 ft 14 kts 103°
2026-05-07 18:11 50.04405 8.54652 372 ft 12 kts 125°
2026-05-07 18:11 50.04380 8.54697 367 ft 9 kts 135°
2026-05-07 18:11 50.04344 8.54742 364 ft 0 kts 146°
2026-05-07 18:11 50.04340 8.54747 367 ft 6 kts 146°
2026-05-07 18:12 50.04290 8.54785 361 ft 9 kts 159°
2026-05-07 18:12 50.04227 8.54820 360 ft 11 kts 160°
2026-05-07 18:12 50.04149 8.54864 361 ft 13 kts 159°
2026-05-07 18:12 50.04100 8.54893 356 ft 9 kts 160°
2026-05-07 18:13 50.04069 8.54910 361 ft 0 kts 160°
2026-05-07 18:15 50.04048 8.54924 358 ft 7 kts 151°
2026-05-07 18:15 50.04023 8.55025 362 ft 13 kts 71°
2026-05-07 18:15 50.04056 8.55170 365 ft 15 kts 70°
2026-05-07 18:15 50.04094 8.55339 359 ft 17 kts 70°
2026-05-07 18:16 50.04140 8.55527 364 ft 20 kts 70°
2026-05-07 18:16 50.04190 8.55738 361 ft 22 kts 69°
2026-05-07 18:16 50.04229 8.55898 363 ft 15 kts 69°
2026-05-07 18:16 50.04281 8.56055 361 ft 18 kts 23°
2026-05-07 18:17 50.04387 8.56033 367 ft 15 kts 354°
2026-05-07 18:17 50.04446 8.56100 363 ft 8 kts 69°
2026-05-07 18:17 50.04470 8.56196 361 ft 11 kts 68°
2026-05-07 18:17 50.04500 8.56320 364 ft 14 kts 69°
2026-05-07 18:18 50.04557 8.56442 361 ft 7 kts 28°
2026-05-07 18:18 50.04608 8.56481 367 ft 10 kts 25°
2026-05-07 18:18 50.04652 8.56512 364 ft 3 kts 24°
2026-05-07 18:18 50.04670 8.56548 367 ft 4 kts 91°
2026-05-07 18:19 50.04662 8.56580 365 ft 4 kts 115°
2026-05-07 18:19 50.04650 8.56620 362 ft 3 kts 115°
2026-05-07 18:19 50.04640 8.56654 364 ft 4 kts 115°
2026-05-07 18:19 50.04637 8.56664 365 ft 0 kts 115°